Regional Weather Roundup
Issued by NWS

Home | Current Version | Previous Version | Text Only | Print | Product List | Glossary Off
Versions: 1 2 3 4 5 6 7 8 9 10 11 12 13 14 15 16 17 18 19 20 21 22 23 24 25 26 27 28 29 30 31 32 33 34 35 36 37 38 39 40 41 42 43 44 45 46 47 48 49 50

000
ASUS43 KMKX 170911
RWRWI

WISCONSIN REGIONAL WEATHER ROUNDUP
NATIONAL WEATHER SERVICE MILWAUKEE/SULLIVAN WI
400 AM CDT TUE OCT 17 2017

NOTE: "FAIR" INDICATES FEW OR NO CLOUDS BELOW 12,000 FEET WITH NO
SIGNIFICANT WEATHER AND/OR OBSTRUCTIONS TO VISIBILITY.

WIZ001-002-006>008-014>016-023>028-171000-
NORTHWEST WISCONSIN

CITY           SKY/WX    TMP DP  RH WIND       PRES   REMARKS
SUPERIOR ARPT  CLEAR     45  38  78 SW8       29.92R
ASHLAND        CLEAR     50  38  63 SW10      29.91S
HAYWARD        CLOUDY    38  35  89 CALM      29.95S
SIREN          CLEAR     42  37  80 CALM      29.95S
CUMBERLAND     CLOUDY    41  34  75 CALM      29.96S
RICE LAKE      CLOUDY    38  36  94 CALM      29.98S
CHETEK         CLOUDY    38  38  98 CALM      29.97S
LADYSMITH      CLOUDY    41  36  82 CALM      29.98S
EAU CLAIRE     CLEAR     42  40  92 SW3       29.97F
MENOMONIE      CLEAR     45  40  83 CALM      29.98S
NEW RICHMOND   CLEAR     44  36  73 CALM      29.97S
OSCEOLA        CLEAR     40  40 100 CALM      29.99S
$$

WIZ003>005-009-010-017-018-171000-
NORTH CENTRAL WISCONSIN

CITY           SKY/WX    TMP DP  RH WIND       PRES   REMARKS
MANITOWISH WTR CLEAR     45  36  71 SW5       29.94R
ARBOR VITAE    CLEAR     42  37  84 CALM      29.94S
WOODRUFF       CLEAR     42  37  84 CALM      29.94S
RHINELANDER    CLOUDY    45  37  73 SW9       29.96F
EAGLE RIVER    CLEAR     42  34  74 SW7       29.94S
LAND O LAKES   CLEAR     41  35  81 CALM      29.95S
PHILLIPS       CLEAR     46  37  71 SW3       29.96R
TOMAHAWK       CLOUDY    39  35  87 CALM      29.97S
MEDFORD        CLEAR     43  36  75 SW5       29.98S
MERRILL        CLOUDY    42  36  77 CALM      29.98F
$$

WIZ029-030-035-036-043>047-171000-
CENTRAL WISCONSIN

CITY           SKY/WX    TMP DP  RH WIND       PRES   REMARKS
WAUSAU         CLOUDY    46  37  71 CALM      29.98S
MOSINEE        CLEAR     43  37  81 S8        30.00S
MARSHFIELD     CLEAR     44  35  70 SW7       29.99F
STEVENS POINT  CLEAR     42  35  77 SW6       30.01S
WAUPACA        PTCLDY    48  38  68 SW7       30.01F
WAUTOMA        CLEAR     36  35  96 CALM      30.04
WISC RAPIDS    CLEAR     48  39  71 SW8       30.01F
CAMP DOUGLAS   NOT AVBL
$$

WIZ011>013-019>022-031-037>040-048>050-171000-
NORTHEAST WISCONSIN

CITY           SKY/WX    TMP DP  RH WIND       PRES   REMARKS
ANTIGO         CLOUDY    44  36  74 SW7       29.98F
SHAWANO        PTCLDY    49  38  65 SW3       29.99S
OCONTO         CLEAR     49  37  63 SW8       29.98F
STURGEON BAY   CLEAR     55  38  52 SW18G24   29.97F
GREEN BAY      PTCLDY    51  40  65 SW7       30.01F
MANITOWOC      MOCLDY    55  37  50 SW16G23   30.02F
APPLETON       PTCLDY    48  34  57 SW14      30.00F
CLINTONVILLE   CLOUDY    46  37  71 SW5       30.00S
OSHKOSH        PTCLDY    49  38  65 SW15      30.02F
$$

WIZ032>034-041-042-053>061-171000-
SOUTHWEST WISCONSIN

CITY           SKY/WX    TMP DP  RH WIND       PRES   REMARKS
LA CROSSE      CLEAR     53  42  66 S7        30.03S
SPARTA         CLEAR     51  39  65 SW3       30.04S
VIROQUA        CLEAR     49  40  71 CALM      30.04F
BOSCOBEL       CLEAR     48  40  73 SW6       30.08F
PRAIRIE DU CHI PTCLDY    54  38  56 CALM      30.08F
PLATTEVILLE    CLOUDY    48  40  74 S8        30.12F
$$

WIZ056-057-062-063-064-067-068-171000-
SOUTH CENTRAL WISCONSIN

CITY           SKY/WX    TMP DP  RH WIND       PRES   REMARKS
REEDSBURG      CLEAR     51  38  61 SW7       30.04F
BARABOO/DELLS  CLEAR     52  37  56 SW14      30.04F
LONE ROCK      CLEAR     50  40  68 SW3       30.08F
MINERAL POINT  CLEAR     46  39  76 S7        30.10F
MADISON        CLEAR     52  39  61 S9        30.09F
MIDDLETON      CLEAR     52  38  58 SW13      30.09F
WATERTOWN      CLEAR     47  40  76 SW7       30.09F
MONROE         CLOUDY    45  37  76 SW14      30.12F
JANESVILLE     CLEAR     46  37  71 SW9       30.13F
$$

WIZ051-052-058>065-066-070>072-171000-
SOUTHEAST WISCONSIN

CITY           SKY/WX    TMP DP  RH WIND       PRES   REMARKS
MILWAUKEE      PTCLDY    49  38  65 SW13      30.12F
WAUKESHA       CLEAR     46  36  66 S7        30.13S
MILWAUKEE/TIMM CLEAR     50  34  53 SW12      30.11F
RACINE         CLEAR     50  38  63 SW10      30.14F
BURLINGTON     CLEAR     44  40  83 SW6       30.14S
KENOSHA        CLEAR     48  38  68 SW9       30.14F
FOND DU LAC    CLOUDY    52  36  54 SW12G23   30.04F
SHEBOYGAN      CLOUDY    53  39  59 SW13      30.05F
WEST BEND      CLEAR     54  34  47 SW14G20   30.08F
JUNEAU         CLEAR     47  38  70 S9        30.09F
$$

LSZ147-162-171000-
LAKE SUPERIOR

STATION/POSITION TIME  TEMP    WIND        PRES    WAVE
                       AIR SEA DIR/SP/G            HT/PER
                 (UTC) (F)     (DEG/KT/KT) (MB)    (FT/S)
W MID LAKE BUOY  0850   54 53              1010.7S   3/ 5
DEVILS ISLAND    0900   56     240/ 19/ 21 1012.0R
SAXON HARBOR     0840   52     210/  4/  8 1012.5R
$$

LMZ867-665-643>646-171000-
LAKE MICHIGAN

STATION/POSITION TIME  TEMP    WIND        PRES    WAVE
                       AIR SEA DIR/SP/G            HT/PER
                 (UTC) (F)     (DEG/KT/KT) (MB)    (FT/S)
S GREEN BAY BUOY 0900   56 58  210/ 21/ 27 1014.6
N MID LAKE BUOY  0850   59 60  210/ 23/ 31 1014.3F   6/ 7
NORTHPORT PIER   0840   57     220/  6/ 15 1013.9F
KEWAUNEE LAKESHO 0848   55     230/  9/ 15 1015.0F
SHEBOYGAN LAKESH 0900   56     230/ 13/ 16 1017.3F
PORT WASHINGTON  0840   55     250/ 10/ 15 1019.3F
MILWAUKEE LAKESH 0850   53     240/ 13/ 16   N/A
S MID LAKE BUOY  0850   60 62  240/ 19/ 23 1021.1F   4/ 5
KENOSHA   LAKESH 0900   53     230/ 10/ 17 1020.7
$$

TC  - TEMPERATURE IN CELSIUS
VSB - VISIBILITY IN STATUTE MILES
WCI - WIND CHILL INDEX
HX  - HEAT INDEX





USA.gov is the U.S. government's official web portal to all federal, state and local government web resources and services.